User: anonymous   Login
Location: Arbon
(43.0005°N, 0.7472°E)
Time: 05:35:32
(UTC+00:00)
Language:

ERS-2 - Orbit

View from above orbital plane
View from above orbital plane
View from above satellite
View from above satellite

Ground track
Ground track

The orbit data is extracted from the following two-line orbital elements,

1 23560U 95021A   20304.22184264 +.00001135 +00000-0 +51519-4 0  9996
2 23560 098.5539 116.2983 0004573 077.6039 282.5706 15.23373234362631
Epoch (UTC): 30 October 2020 05:19:27
Eccentricity: 0.0004573
inclination: 98.5539°
perigee height: 492 km
apogee height: 499 km
right ascension of ascending node: 116.2983°
argument of perigee: 77.6039°
revolutions per day: 15.23373234
mean anomaly at epoch: 282.5706°
orbit number at epoch: 36263

The dashed part of the orbit path shows where the satellite is in the earth's shadow,  

DLR